Regional Weather Roundup
Issued by NWS

Home | Current Version | Previous Version | Graphics & Text | Print | Product List | Glossary On
Versions: 1 2 3 4 5 6 7 8 9 10 11 12 13 14 15 16 17 18 19 20 21 22 23 24 25 26 27 28 29 30 31 32 33 34 35 36 37 38 39 40 41 42 43 44 45 46 47 48 49 50
000
ASUS45 KBOU 301807
RWRCO

WEATHER ROUNDUP FOR COLORADO
NATIONAL WEATHER SERVICE DENVER/BOULDER CO
1100 AM MST FRI JAN 30 2015

NOTE: "FAIR" INDICATES FEW OR NO CLOUDS BELOW 12000 FEET WITH NO
SIGNIFICANT WEATHER AND/OR OBSTRUCTIONS TO VISIBILITY.

COZ001>005-013-030-031-301900-
...NORTHWEST COLORADO...

CITY           SKY/WX    TMP DP  RH WIND       PRES   REMARKS
CRAIG          CLOUDY    37  31  78 E5        30.17F
HAYDEN         CLOUDY    34  27  75 E8        30.17F WCI  27
MEEKER         CLOUDY    33  31  92 CALM      30.15F
MOUNT WERNER   NOT AVBL
STEAMBOAT SPGS CLOUDY    32  27  81 CALM      30.18S
WALDEN         PTSUNNY   32  25  74 CALM      30.20F
$$

COZ006>008-011-301900-
...WEST CENTRAL VALLEYS...

CITY           SKY/WX    TMP DP  RH WIND       PRES   REMARKS
GRAND JUNCTION CLOUDY    45  33  63 SE9       30.13S
MONTROSE       CLOUDY    41  33  73 CALM      30.16R
EAGLE          PTSUNNY   34  28  80 CALM      30.21F
RIFLE          CLOUDY    38  30  73 CALM      30.15F
DELTA          CLOUDY    43  33  66 CALM      30.14F
NUCLA          DRIZZLE   37  37 100 CALM      30.18F
$$

COZ017>023-064>068-301900-
...SOUTHWEST COLORADO...

CITY           SKY/WX    TMP DP  RH WIND       PRES   REMARKS
DURANGO        SNOW      32  31  96 E5        30.20F VSB 1/2 WCI  27
CORTEZ         MIX PCPN  37  34  89 CALM      30.15F
PAGOSA SPRINGS LGT SNOW  34  33  98 CALM      30.22F VSB 3/4
TELLURIDE      CLOUDY    36  31  82 E3        30.16F
WOLF CREEK PAS NOT AVBL
$$

COZ009-010-012-014-032>034-037-058>063-301900-
...CENTRAL COLORADO...

CITY           SKY/WX    TMP DP  RH WIND       PRES   REMARKS
ASPEN          CLOUDY    31  24  75 NW5       30.15F WCI  26
BUENA VISTA    FLURRIES  32  26  79 CALM      30.23F
COPPER MTN     CLOUDY    30  18  59 S6        30.24S WCI  24
BERTHOUD PASS  CLOUDY    19  12  73 E31       30.25F WCI   0
COTTONWOOD PAS LGT SNOW  30  27  86 CALM      30.23F
GUNNISON       CLOUDY    32  27  80 NE6       30.23F WCI  26
KREMMLING      CLOUDY    30  23  74 CALM      30.23F
LEADVILLE      CLOUDY    24  19  81 N3        30.21F
SALIDA         CLOUDY    34  29  83 CALM      30.31F
SUNLIGHT       CLOUDY    32  27  80 CALM        N/A  HAZE
WILKERSON PASS CLOUDY    27  23  86 NE7       30.27F WCI  19
$$

COZ069>075-301900-
...SAN LUIS VALLEY/SANGRE DE CRISTO MOUNTAINS...

CITY           SKY/WX    TMP DP  RH WIND       PRES   REMARKS
ALAMOSA        LGT SNOW  31  27  85 CALM      30.24F FOG
LA VETA PASS   LGT SNOW  27  25  93 SW7       30.23F WCI  19
SAGUACHE       LGT RAIN  30  28  93 CALM      30.26F
$$

COZ035-036-038>040-301900-
...NORTHERN COLORADO FRONT RANGE...

CITY           SKY/WX    TMP DP  RH WIND       PRES   REMARKS
DENVER INTL AP CLOUDY    41  26  55 CALM      30.18F
DMNS CITY PARK   N/A     43  25  50 SW2       30.17F
AURORA         CLOUDY    41  26  53 SW2       30.18F
FRONT RANGE AP CLOUDY    41  28  60 CALM      30.19S
ERIE MUNI ARPT CLOUDY    43  27  54 CALM      30.17F
BOULDER MUN AP CLOUDY    41  28  60 CALM      30.17F
CENTENNIAL     CLOUDY    41  28  60 S3        30.17F
BROOMFIELD     PTSUNNY   41  27  56 CALM      30.18F
FORT COLLINS   CLOUDY    39  27  60 S3        30.19F
LONGMONT       CLOUDY    46  29  51 CALM      30.19F
$$

COZ041-046-047-076>085-087-088-301900-
...PIKES PEAK/PALMER DIVIDE AND SOUTHERN FOOTHILLS...

CITY           SKY/WX    TMP DP  RH WIND       PRES   REMARKS
COLO. SPRINGS  CLOUDY    37  25  61 CALM      30.20F
A. F. ACADEMY  CLOUDY    34  23  62 SW2       30.18F
ELLICOTT       CLOUDY   N/A N/A N/A S7        30.19F
FALCON         CLOUDY    34  23  65 CALM      30.20F
FORT CARSON    CLOUDY    36  26  67 VRB6      30.19F
LIMON          CLOUDY    42  29  59 S18G24    30.21F
MONUMENT HILL  CLOUDY    39  27  60 SW5       30.17F
TRINIDAD       LGT SNOW  34  31  88 W14       30.23S FOG     WCI  25
$$

COZ042>045-048>051-090-091-301900-
...NORTHEAST COLORADO...

CITY           SKY/WX    TMP DP  RH WIND       PRES   REMARKS
GREELEY ARPT   CLOUDY    37  25  60 SW3       30.17F
AKRON          PTSUNNY   44  28  53 SW16      30.17F
BURLINGTON     PTSUNNY   45  32  60 SW32G41   30.25F
WRAY           PTSUNNY   52  31  45 S24       30.21F
STERLING       PTSUNNY   45  32  61 SW7       30.17F
HOLYOKE        NOT AVBL
FORT MORGAN    PTSUNNY   36  27  70 W7        30.19S
$$

COZ086-089-092>099-301900-
...SOUTHEAST COLORADO...

CITY           SKY/WX    TMP DP  RH WIND       PRES   REMARKS
PUEBLO         CLOUDY    40  27  59 N6        30.20F
LA JUNTA       LGT RAIN  42  35  76 S20       30.23F
LAMAR          CLOUDY    42  36  79 SW3       30.27F
SPRINGFIELD    NOT AVBL
$$


USA.gov is the U.S. government's official web portal to all federal, state and local government web resources and services.